Time,TemperatureF,DewpointF,PressureIn,WindDirection,WindDirectionDegrees,WindSpeedMPH,WindSpeedGustMPH,Humidity,HourlyPrecipIn,Conditions,Clouds,dailyrainin,SoftwareType,DateUTC
2013-02-27 00:00:00,46.1,45.8,29.59,West,269,0.0,0.0,99,0.00,,,0.82,Wunderground v.1.15,2013-02-27 05:00:00,
2013-02-27 00:02:00,46.0,45.7,29.59,West,269,0.0,0.0,99,0.00,,,0.00,Wunderground v.1.15,2013-02-27 05:02:00,
2013-02-27 00:06:00,45.9,45.6,29.59,West,269,0.0,0.0,99,0.00,,,0.00,Wunderground v.1.15,2013-02-27 05:06:00,
2013-02-27 00:08:00,45.8,45.5,29.59,West,269,0.0,0.0,99,0.00,,,0.00,Wunderground v.1.15,2013-02-27 05:08:00,
2013-02-27 00:14:00,45.6,45.3,29.59,West,269,0.0,0.0,99,0.00,,,0.00,Wunderground v.1.15,2013-02-27 05:14:00,
2013-02-27 00:20:00,45.3,45.0,29.60,West,269,0.0,0.0,99,0.00,,,0.00,Wunderground v.1.15,2013-02-27 05:20:00,
2013-02-27 00:26:00,45.0,44.7,29.60,West,269,0.0,0.0,99,0.00,,,0.00,Wunderground v.1.15,2013-02-27 05:26:00,
2013-02-27 00:32:00,44.9,44.6,29.59,West,269,0.0,0.0,99,0.00,,,0.00,Wunderground v.1.15,2013-02-27 05:32:00,
2013-02-27 00:38:00,44.8,44.5,29.59,West,269,0.0,0.0,99,0.00,,,0.00,Wunderground v.1.15,2013-02-27 05:38:00,
2013-02-27 00:44:00,44.7,44.4,29.59,West,269,0.0,0.0,99,0.00,,,0.00,Wunderground v.1.15,2013-02-27 05:44:00,
2013-02-27 00:50:00,44.6,44.3,29.59,West,269,0.0,0.0,99,0.00,,,0.00,Wunderground v.1.15,2013-02-27 05:50:00,
2013-02-27 00:56:00,44.9,44.6,29.60,North,355,0.0,1.0,99,0.00,,,0.00,Wunderground v.1.15,2013-02-27 05:56:00,
2013-02-27 01:02:00,45.1,44.8,29.60,North,355,0.0,0.0,99,0.00,,,0.00,Wunderground v.1.15,2013-02-27 06:02:00,
2013-02-27 01:08:00,45.5,45.2,29.60,NNE,22,1.0,1.0,99,0.00,,,0.00,Wunderground v.1.15,2013-02-27 06:08:00,
2013-02-27 01:14:00,45.5,45.5,29.61,WSW,246,1.0,1.0,100,0.00,,,0.00,Wunderground v.1.15,2013-02-27 06:14:00,
2013-02-27 01:20:00,45.5,45.5,29.61,WSW,246,1.0,1.0,100,0.00,,,0.00,Wunderground v.1.15,2013-02-27 06:20:00,
2013-02-27 01:26:00,45.4,45.4,29.61,WSW,246,0.0,1.0,100,0.00,,,0.00,Wunderground v.1.15,2013-02-27 06:26:00,
2013-02-27 01:32:00,45.1,44.8,29.61,WSW,246,0.0,1.0,99,0.00,,,0.00,Wunderground v.1.15,2013-02-27 06:32:00,
2013-02-27 01:38:00,45.1,44.8,29.61,WSW,246,0.0,3.0,99,0.00,,,0.00,Wunderground v.1.15,2013-02-27 06:38:00,
2013-02-27 01:44:00,45.0,45.0,29.61,WSW,246,0.0,0.0,100,0.00,,,0.00,Wunderground v.1.15,2013-02-27 06:44:00,
2013-02-27 01:50:00,44.7,44.7,29.61,WSW,246,0.0,0.0,100,0.00,,,0.00,Wunderground v.1.15,2013-02-27 06:50:00,
2013-02-27 01:56:00,44.6,44.3,29.61,SSW,213,0.0,2.0,99,0.00,,,0.00,Wunderground v.1.15,2013-02-27 06:56:00,
2013-02-27 02:02:00,44.3,44.0,29.60,SSW,213,0.0,1.0,99,0.00,,,0.00,Wunderground v.1.15,2013-02-27 07:02:00,
2013-02-27 02:08:00,44.2,43.9,29.61,SSW,213,0.0,1.0,99,0.00,,,0.00,Wunderground v.1.15,2013-02-27 07:08:00,
2013-02-27 02:14:00,44.2,43.9,29.61,SW,232,1.0,1.0,99,0.00,,,0.00,Wunderground v.1.15,2013-02-27 07:14:00,
2013-02-27 02:20:00,44.2,43.9,29.61,SW,232,1.0,1.0,99,0.00,,,0.00,Wunderground v.1.15,2013-02-27 07:20:00,
2013-02-27 02:26:00,44.3,44.3,29.61,SSE,147,1.0,1.0,100,0.00,,,0.00,Wunderground v.1.15,2013-02-27 07:26:00,
2013-02-27 02:32:00,44.3,44.0,29.61,SSW,200,1.0,1.0,99,0.00,,,0.00,Wunderground v.1.15,2013-02-27 07:32:00,
2013-02-27 02:38:00,44.5,44.2,29.61,WSW,245,1.0,3.0,99,0.00,,,0.00,Wunderground v.1.15,2013-02-27 07:38:00,
2013-02-27 02:44:00,44.6,44.3,29.61,WSW,245,1.0,2.0,99,0.00,,,0.00,Wunderground v.1.15,2013-02-27 07:44:00,
2013-02-27 02:50:00,44.6,44.3,29.62,WSW,238,1.0,2.0,99,0.00,,,0.00,Wunderground v.1.15,2013-02-27 07:50:00,
2013-02-27 02:56:00,44.6,44.3,29.61,WSW,238,0.0,2.0,99,0.00,,,0.00,Wunderground v.1.15,2013-02-27 07:56:00,
2013-02-27 03:02:00,44.7,44.7,29.61,WSW,238,1.0,1.0,100,0.00,,,0.00,Wunderground v.1.15,2013-02-27 08:02:00,
2013-02-27 03:08:00,44.7,44.7,29.62,WSW,238,1.0,1.0,100,0.00,,,0.00,Wunderground v.1.15,2013-02-27 08:08:00,
2013-02-27 03:14:00,44.7,44.7,29.61,SSE,168,1.0,1.0,100,0.00,,,0.00,Wunderground v.1.15,2013-02-27 08:14:00,
2013-02-27 03:20:00,44.5,44.2,29.60,West,259,1.0,1.0,99,0.00,,,0.00,Wunderground v.1.15,2013-02-27 08:20:00,
2013-02-27 03:26:00,44.4,44.1,29.60,West,259,1.0,1.0,99,0.00,,,0.00,Wunderground v.1.15,2013-02-27 08:26:00,
2013-02-27 03:32:00,44.3,44.3,29.60,West,259,0.0,0.0,100,0.00,,,0.00,Wunderground v.1.15,2013-02-27 08:32:00,
2013-02-27 03:38:00,44.2,44.2,29.59,West,259,0.0,2.0,100,0.00,,,0.00,Wunderground v.1.15,2013-02-27 08:38:00,
2013-02-27 03:44:00,44.1,44.1,29.59,West,259,0.0,0.0,100,0.00,,,0.00,Wunderground v.1.15,2013-02-27 08:44:00,
2013-02-27 03:50:00,44.0,43.7,29.59,West,259,0.0,0.0,99,0.00,,,0.00,Wunderground v.1.15,2013-02-27 08:50:00,
2013-02-27 03:56:00,43.9,43.6,29.59,West,259,0.0,1.0,99,0.00,,,0.00,Wunderground v.1.15,2013-02-27 08:56:00,
2013-02-27 04:02:00,43.9,43.6,29.59,WSW,253,1.0,1.0,99,0.00,,,0.00,Wunderground v.1.15,2013-02-27 09:02:00,
2013-02-27 04:08:00,43.8,43.5,29.61,WSW,253,1.0,2.0,99,0.00,,,0.00,Wunderground v.1.15,2013-02-27 09:08:00,
2013-02-27 04:14:00,43.8,43.5,29.61,WSW,253,1.0,1.0,99,0.00,,,0.00,Wunderground v.1.15,2013-02-27 09:14:00,
2013-02-27 04:20:00,43.9,43.6,29.61,WSW,253,1.0,1.0,99,0.00,,,0.00,Wunderground v.1.15,2013-02-27 09:20:00,
2013-02-27 04:26:00,43.8,43.5,29.62,West,271,1.0,2.0,99,0.00,,,0.00,Wunderground v.1.15,2013-02-27 09:26:00,
2013-02-27 04:32:00,43.8,43.5,29.62,WSW,238,2.0,3.0,99,0.00,,,0.00,Wunderground v.1.15,2013-02-27 09:32:00,
2013-02-27 04:38:00,43.8,43.5,29.62,SW,229,2.0,3.0,99,0.00,,,0.00,Wunderground v.1.15,2013-02-27 09:38:00,
2013-02-27 04:44:00,43.8,43.5,29.62,WSW,250,2.0,2.0,99,0.00,,,0.00,Wunderground v.1.15,2013-02-27 09:44:00,
2013-02-27 04:50:00,43.7,43.4,29.62,WSW,250,1.0,1.0,99,0.00,,,0.00,Wunderground v.1.15,2013-02-27 09:50:00,
2013-02-27 04:56:00,43.7,43.4,29.63,WSW,250,1.0,2.0,99,0.00,,,0.00,Wunderground v.1.15,2013-02-27 09:56:00,
2013-02-27 05:02:00,43.6,43.3,29.63,NNE,24,1.0,1.0,99,0.00,,,0.00,Wunderground v.1.15,2013-02-27 10:02:00,
2013-02-27 05:08:00,43.6,43.3,29.63,East,88,1.0,3.0,99,0.00,,,0.00,Wunderground v.1.15,2013-02-27 10:08:00,
2013-02-27 05:14:00,43.5,43.0,29.64,North,355,2.0,2.0,98,0.00,,,0.00,Wunderground v.1.15,2013-02-27 10:14:00,
2013-02-27 05:20:00,43.4,42.9,29.64,West,274,1.0,2.0,98,0.00,,,0.00,Wunderground v.1.15,2013-02-27 10:20:00,
2013-02-27 05:26:00,43.3,42.8,29.64,WNW,283,1.0,4.0,98,0.00,,,0.00,Wunderground v.1.15,2013-02-27 10:26:00,
2013-02-27 05:32:00,43.2,42.4,29.63,NNE,13,1.0,2.0,97,0.00,,,0.00,Wunderground v.1.15,2013-02-27 10:32:00,
2013-02-27 05:38:00,43.1,42.3,29.64,NNE,13,1.0,2.0,97,0.00,,,0.00,Wunderground v.1.15,2013-02-27 10:38:00,
2013-02-27 05:44:00,43.0,42.2,29.64,NNW,333,0.0,0.0,97,0.00,,,0.00,Wunderground v.1.15,2013-02-27 10:44:00,
2013-02-27 05:50:00,43.0,42.5,29.65,NNW,333,0.0,0.0,98,0.00,,,0.00,Wunderground v.1.15,2013-02-27 10:50:00,
2013-02-27 05:56:00,42.9,42.4,29.65,NNW,333,0.0,0.0,98,0.00,,,0.00,Wunderground v.1.15,2013-02-27 10:56:00,
2013-02-27 06:02:00,42.9,42.1,29.65,SW,235,1.0,1.0,97,0.00,,,0.00,Wunderground v.1.15,2013-02-27 11:02:00,
2013-02-27 06:08:00,42.9,42.1,29.65,East,92,1.0,1.0,97,0.00,,,0.00,Wunderground v.1.15,2013-02-27 11:08:00,
2013-02-27 06:14:00,42.9,42.1,29.66,SE,139,1.0,3.0,97,0.00,,,0.00,Wunderground v.1.15,2013-02-27 11:14:00,
2013-02-27 06:20:00,42.9,42.1,29.66,West,268,1.0,2.0,97,0.00,,,0.00,Wunderground v.1.15,2013-02-27 11:20:00,
2013-02-27 06:26:00,42.8,42.0,29.66,WSW,250,1.0,2.0,97,0.00,,,0.00,Wunderground v.1.15,2013-02-27 11:26:00,
2013-02-27 06:32:00,42.8,42.0,29.66,WSW,250,1.0,2.0,97,0.00,,,0.00,Wunderground v.1.15,2013-02-27 11:32:00,
2013-02-27 06:38:00,42.8,42.0,29.66,SSW,194,1.0,3.0,97,0.00,,,0.00,Wunderground v.1.15,2013-02-27 11:38:00,
2013-02-27 06:44:00,42.8,41.7,29.66,West,267,1.0,3.0,96,0.00,,,0.00,Wunderground v.1.15,2013-02-27 11:44:00,
2013-02-27 06:50:00,42.8,41.7,29.66,West,267,1.0,3.0,96,0.00,,,0.00,Wunderground v.1.15,2013-02-27 11:50:00,
2013-02-27 06:56:00,42.8,41.7,29.67,West,267,1.0,3.0,96,0.00,,,0.00,Wunderground v.1.15,2013-02-27 11:56:00,
2013-02-27 07:02:00,42.7,41.6,29.68,West,267,0.0,0.0,96,0.00,,,0.00,Wunderground v.1.15,2013-02-27 12:02:00,
2013-02-27 07:08:00,42.6,41.5,29.68,WSW,254,0.0,2.0,96,0.00,,,0.00,Wunderground v.1.15,2013-02-27 12:08:00,
2013-02-27 07:14:00,42.6,41.5,29.68,NNW,332,1.0,2.0,96,0.00,,,0.00,Wunderground v.1.15,2013-02-27 12:14:00,
2013-02-27 07:20:00,42.5,41.7,29.69,WNW,288,1.0,1.0,97,0.00,,,0.00,Wunderground v.1.15,2013-02-27 12:20:00,
2013-02-27 07:26:00,42.6,41.8,29.70,SSE,159,1.0,1.0,97,0.00,,,0.00,Wunderground v.1.15,2013-02-27 12:26:00,
2013-02-27 07:32:00,42.7,41.9,29.70,SSE,159,0.0,0.0,97,0.00,,,0.00,Wunderground v.1.15,2013-02-27 12:32:00,
2013-02-27 07:38:00,42.8,42.0,29.70,West,266,0.0,3.0,97,0.00,,,0.00,Wunderground v.1.15,2013-02-27 12:38:00,
2013-02-27 07:44:00,42.8,42.0,29.70,WSW,258,1.0,1.0,97,0.00,,,0.00,Wunderground v.1.15,2013-02-27 12:44:00,
2013-02-27 07:50:00,42.9,42.1,29.70,West,259,1.0,1.0,97,0.00,,,0.00,Wunderground v.1.15,2013-02-27 12:50:00,
2013-02-27 07:56:00,43.1,42.3,29.71,West,259,0.0,1.0,97,0.00,,,0.00,Wunderground v.1.15,2013-02-27 12:56:00,
2013-02-27 08:02:00,43.2,42.1,29.71,West,259,0.0,2.0,96,0.00,,,0.00,Wunderground v.1.15,2013-02-27 13:02:00,
2013-02-27 08:08:00,43.4,42.3,29.71,West,259,1.0,2.0,96,0.00,,,0.00,Wunderground v.1.15,2013-02-27 13:08:00,
2013-02-27 08:14:00,43.6,42.3,29.72,West,259,1.0,1.0,95,0.00,,,0.00,Wunderground v.1.15,2013-02-27 13:14:00,
2013-02-27 08:20:00,43.7,42.4,29.72,West,259,1.0,1.0,95,0.00,,,0.00,Wunderground v.1.15,2013-02-27 13:20:00,
2013-02-27 08:26:00,43.9,42.6,29.73,West,259,1.0,2.0,95,0.00,,,0.00,Wunderground v.1.15,2013-02-27 13:26:00,
2013-02-27 08:32:00,44.0,42.4,29.73,WSW,240,1.0,1.0,94,0.00,,,0.00,Wunderground v.1.15,2013-02-27 13:32:00,
2013-02-27 08:38:00,44.2,42.9,29.74,WSW,240,1.0,1.0,95,0.00,,,0.00,Wunderground v.1.15,2013-02-27 13:38:00,
2013-02-27 08:44:00,44.4,42.5,29.74,SW,235,1.0,3.0,93,0.00,,,0.00,Wunderground v.1.15,2013-02-27 13:44:00,
2013-02-27 08:50:00,44.6,42.7,29.74,WSW,255,2.0,2.0,93,0.00,,,0.00,Wunderground v.1.15,2013-02-27 13:50:00,
2013-02-27 08:56:00,45.1,43.5,29.74,SW,225,2.0,2.0,94,0.00,,,0.00,Wunderground v.1.15,2013-02-27 13:56:00,
2013-02-27 09:02:00,45.7,43.5,29.75,NE,44,1.0,2.0,92,0.00,,,0.00,Wunderground v.1.15,2013-02-27 14:02:00,
2013-02-27 09:08:00,46.2,43.4,29.75,West,269,1.0,2.0,90,0.00,,,0.00,Wunderground v.1.15,2013-02-27 14:08:00,
2013-02-27 09:14:00,46.4,43.6,29.75,WSW,250,1.0,2.0,90,0.00,,,0.00,Wunderground v.1.15,2013-02-27 14:14:00,
2013-02-27 09:20:00,46.8,43.7,29.75,SW,231,1.0,1.0,89,0.00,,,0.00,Wunderground v.1.15,2013-02-27 14:20:00,
2013-02-27 09:26:00,47.0,43.3,29.75,East,94,1.0,1.0,87,0.00,,,0.00,Wunderground v.1.15,2013-02-27 14:26:00,
2013-02-27 09:32:00,47.4,43.7,29.74,North,349,1.0,1.0,87,0.00,,,0.00,Wunderground v.1.15,2013-02-27 14:32:00,
2013-02-27 09:38:00,47.7,43.1,29.74,NE,49,2.0,2.0,84,0.00,,,0.00,Wunderground v.1.15,2013-02-27 14:38:00,
2013-02-27 09:44:00,47.9,43.0,29.74,SSW,194,2.0,2.0,83,0.00,,,0.00,Wunderground v.1.15,2013-02-27 14:44:00,
2013-02-27 09:50:00,48.1,43.5,29.74,West,259,2.0,2.0,84,0.00,,,0.00,Wunderground v.1.15,2013-02-27 14:50:00,
2013-02-27 09:56:00,48.6,43.7,29.74,NNE,23,1.0,2.0,83,0.00,,,0.00,Wunderground v.1.15,2013-02-27 14:56:00,
2013-02-27 10:02:00,48.9,43.0,29.74,West,259,2.0,2.0,80,0.00,,,0.00,Wunderground v.1.15,2013-02-27 15:02:00,
2013-02-27 10:08:00,49.0,43.1,29.74,SW,219,2.0,3.0,80,0.00,,,0.00,Wunderground v.1.15,2013-02-27 15:08:00,
2013-02-27 10:14:00,49.4,43.2,29.74,West,276,2.0,3.0,79,0.00,,,0.00,Wunderground v.1.15,2013-02-27 15:14:00,
2013-02-27 10:20:00,49.8,43.5,29.74,North,351,2.0,2.0,79,0.00,,,0.00,Wunderground v.1.15,2013-02-27 15:20:00,
2013-02-27 10:26:00,50.4,43.5,29.75,West,260,1.0,2.0,77,0.00,,,0.00,Wunderground v.1.15,2013-02-27 15:26:00,
2013-02-27 10:32:00,50.8,43.2,29.75,NW,322,2.0,4.0,75,0.00,,,0.00,Wunderground v.1.15,2013-02-27 15:32:00,
2013-02-27 10:38:00,51.3,44.0,29.75,WSW,252,2.0,4.0,76,0.00,,,0.00,Wunderground v.1.15,2013-02-27 15:38:00,
2013-02-27 10:44:00,51.5,42.0,29.75,WSW,254,2.0,5.0,70,0.00,,,0.00,Wunderground v.1.15,2013-02-27 15:44:00,
2013-02-27 10:50:00,51.4,42.3,29.75,West,281,2.0,2.0,71,0.00,,,0.00,Wunderground v.1.15,2013-02-27 15:50:00,
2013-02-27 10:56:00,52.2,42.3,29.75,ESE,117,2.0,2.0,69,0.00,,,0.00,Wunderground v.1.15,2013-02-27 15:56:00,
2013-02-27 11:02:00,52.4,42.5,29.75,ENE,59,2.0,2.0,69,0.00,,,0.00,Wunderground v.1.15,2013-02-27 16:02:00,
2013-02-27 11:08:00,52.9,41.4,29.75,WSW,238,2.0,3.0,65,0.00,,,0.00,Wunderground v.1.15,2013-02-27 16:08:00,
2013-02-27 11:14:00,53.4,41.9,29.75,SW,226,1.0,3.0,65,0.00,,,0.00,Wunderground v.1.15,2013-02-27 16:14:00,
2013-02-27 11:20:00,53.6,41.3,29.75,West,280,2.0,2.0,63,0.00,,,0.00,Wunderground v.1.15,2013-02-27 16:20:00,
2013-02-27 11:26:00,53.8,41.5,29.75,West,270,2.0,3.0,63,0.00,,,0.00,Wunderground v.1.15,2013-02-27 16:26:00,
2013-02-27 11:32:00,54.2,42.3,29.75,West,271,2.0,2.0,64,0.00,,,0.00,Wunderground v.1.15,2013-02-27 16:32:00,
2013-02-27 11:38:00,54.7,41.9,29.75,WSW,257,2.0,4.0,62,0.00,,,0.00,Wunderground v.1.15,2013-02-27 16:38:00,
2013-02-27 11:44:00,54.9,41.3,29.75,WSW,257,2.0,2.0,60,0.00,,,0.00,Wunderground v.1.15,2013-02-27 16:44:00,
2013-02-27 11:50:00,55.6,41.5,29.74,ENE,67,2.0,2.0,59,0.00,,,0.00,Wunderground v.1.15,2013-02-27 16:50:00,
2013-02-27 11:56:00,55.9,40.9,29.74,ENE,74,2.0,6.0,57,0.00,,,0.00,Wunderground v.1.15,2013-02-27 16:56:00,
2013-02-27 12:02:00,56.0,39.6,29.74,ENE,76,2.0,2.0,54,0.00,,,0.00,Wunderground v.1.15,2013-02-27 17:02:00,
2013-02-27 12:08:00,56.0,41.0,29.74,North,10,2.0,5.0,57,0.00,,,0.00,Wunderground v.1.15,2013-02-27 17:08:00,
2013-02-27 12:14:00,56.0,39.1,29.73,SSE,157,2.0,3.0,53,0.00,,,0.00,Wunderground v.1.15,2013-02-27 17:14:00,
2013-02-27 12:20:00,56.1,40.1,29.73,SW,217,2.0,4.0,55,0.00,,,0.00,Wunderground v.1.15,2013-02-27 17:20:00,
2013-02-27 12:26:00,56.4,40.0,29.73,SE,144,2.0,4.0,54,0.00,,,0.00,Wunderground v.1.15,2013-02-27 17:26:00,
2013-02-27 12:32:00,56.6,39.7,29.73,NW,304,2.0,4.0,53,0.00,,,0.00,Wunderground v.1.15,2013-02-27 17:32:00,
2013-02-27 12:38:00,56.7,39.3,29.73,West,269,2.0,4.0,52,0.00,,,0.00,Wunderground v.1.15,2013-02-27 17:38:00,
2013-02-27 12:44:00,56.8,39.4,29.72,NW,319,2.0,5.0,52,0.00,,,0.00,Wunderground v.1.15,2013-02-27 17:44:00,
2013-02-27 12:50:00,56.8,38.9,29.73,SW,234,3.0,3.0,51,0.00,,,0.00,Wunderground v.1.15,2013-02-27 17:50:00,
2013-02-27 12:56:00,57.3,39.3,29.73,SW,225,2.0,5.0,51,0.00,,,0.00,Wunderground v.1.15,2013-02-27 17:56:00,
2013-02-27 13:02:00,57.4,38.4,29.72,WSW,245,3.0,3.0,49,0.00,,,0.00,Wunderground v.1.15,2013-02-27 18:02:00,
2013-02-27 13:08:00,57.6,40.1,29.72,WSW,243,2.0,3.0,52,0.00,,,0.00,Wunderground v.1.15,2013-02-27 18:08:00,
2013-02-27 13:14:00,57.8,38.2,29.71,NW,319,2.0,6.0,48,0.00,,,0.00,Wunderground v.1.15,2013-02-27 18:14:00,
2013-02-27 13:20:00,58.0,40.0,29.71,WNW,296,2.0,2.0,51,0.00,,,0.00,Wunderground v.1.15,2013-02-27 18:20:00,
2013-02-27 13:26:00,58.1,38.5,29.70,NNW,332,3.0,5.0,48,0.00,,,0.00,Wunderground v.1.15,2013-02-27 18:26:00,
2013-02-27 13:32:00,58.1,39.5,29.70,North,5,3.0,3.0,50,0.00,,,0.00,Wunderground v.1.15,2013-02-27 18:32:00,
2013-02-27 13:38:00,58.2,38.1,29.70,NE,43,3.0,3.0,47,0.00,,,0.00,Wunderground v.1.15,2013-02-27 18:38:00,
2013-02-27 13:44:00,58.2,38.1,29.70,NNE,13,3.0,3.0,47,0.00,,,0.00,Wunderground v.1.15,2013-02-27 18:44:00,
2013-02-27 13:50:00,58.5,38.9,29.69,NNW,333,3.0,3.0,48,0.00,,,0.00,Wunderground v.1.15,2013-02-27 18:50:00,
2013-02-27 13:56:00,58.7,40.6,29.70,NNE,28,2.0,3.0,51,0.00,,,0.00,Wunderground v.1.15,2013-02-27 18:56:00,
2013-02-27 14:02:00,59.5,39.2,29.70,West,268,1.0,2.0,47,0.00,,,0.00,Wunderground v.1.15,2013-02-27 19:02:00,
2013-02-27 14:08:00,59.2,39.0,29.70,West,265,3.0,8.0,47,0.00,,,0.00,Wunderground v.1.15,2013-02-27 19:08:00,
2013-02-27 14:14:00,59.5,39.2,29.70,NE,51,3.0,4.0,47,0.00,,,0.00,Wunderground v.1.15,2013-02-27 19:14:00,
2013-02-27 14:20:00,59.5,39.2,29.70,West,272,2.0,2.0,47,0.00,,,0.00,Wunderground v.1.15,2013-02-27 19:20:00,
2013-02-27 14:26:00,60.1,39.8,29.70,West,276,2.0,4.0,47,0.00,,,0.00,Wunderground v.1.15,2013-02-27 19:26:00,
2013-02-27 14:32:00,60.1,39.2,29.70,SE,136,2.0,3.0,46,0.00,,,0.00,Wunderground v.1.15,2013-02-27 19:32:00,
2013-02-27 14:38:00,60.1,39.8,29.70,West,262,3.0,3.0,47,0.00,,,0.00,Wunderground v.1.15,2013-02-27 19:38:00,
2013-02-27 14:44:00,60.0,39.1,29.70,East,82,2.0,2.0,46,0.00,,,0.00,Wunderground v.1.15,2013-02-27 19:44:00,
2013-02-27 14:50:00,60.3,39.4,29.69,SW,236,2.0,3.0,46,0.00,,,0.00,Wunderground v.1.15,2013-02-27 19:50:00,
2013-02-27 14:56:00,60.5,39.0,29.69,WSW,248,2.0,3.0,45,0.00,,,0.00,Wunderground v.1.15,2013-02-27 19:56:00,
2013-02-27 15:02:00,60.4,38.9,29.69,SSW,196,2.0,3.0,45,0.00,,,0.00,Wunderground v.1.15,2013-02-27 20:02:00,
2013-02-27 15:08:00,60.5,39.0,29.69,WNW,286,2.0,4.0,45,0.00,,,0.00,Wunderground v.1.15,2013-02-27 20:08:00,
2013-02-27 15:14:00,60.3,38.3,29.69,WSW,247,2.0,3.0,44,0.00,,,0.00,Wunderground v.1.15,2013-02-27 20:14:00,
2013-02-27 15:20:00,60.1,38.7,29.69,WSW,243,2.0,4.0,45,0.00,,,0.00,Wunderground v.1.15,2013-02-27 20:20:00,
2013-02-27 15:26:00,59.7,39.4,29.69,SSW,209,2.0,4.0,47,0.00,,,0.00,Wunderground v.1.15,2013-02-27 20:26:00,
2013-02-27 15:32:00,59.4,38.6,29.69,SW,235,2.0,2.0,46,0.00,,,0.00,Wunderground v.1.15,2013-02-27 20:32:00,
2013-02-27 15:38:00,59.2,38.4,29.69,SW,217,2.0,2.0,46,0.00,,,0.00,Wunderground v.1.15,2013-02-27 20:38:00,
2013-02-27 15:44:00,59.2,39.0,29.69,SSW,194,2.0,2.0,47,0.00,,,0.00,Wunderground v.1.15,2013-02-27 20:44:00,
2013-02-27 15:50:00,59.1,39.4,29.68,SSE,153,2.0,2.0,48,0.00,,,0.00,Wunderground v.1.15,2013-02-27 20:50:00,
2013-02-27 15:56:00,59.0,39.9,29.68,ESE,113,1.0,3.0,49,0.00,,,0.00,Wunderground v.1.15,2013-02-27 20:56:00,
2013-02-27 16:02:00,58.9,39.2,29.68,SSE,157,1.0,1.0,48,0.00,,,0.00,Wunderground v.1.15,2013-02-27 21:02:00,
2013-02-27 16:08:00,59.0,40.9,29.68,West,280,1.0,1.0,51,0.00,,,0.00,Wunderground v.1.15,2013-02-27 21:08:00,
2013-02-27 16:14:00,58.9,39.2,29.68,SW,221,1.0,2.0,48,0.00,,,0.00,Wunderground v.1.15,2013-02-27 21:14:00,
2013-02-27 16:20:00,58.9,40.3,29.68,WSW,244,1.0,2.0,50,0.00,,,0.00,Wunderground v.1.15,2013-02-27 21:20:00,
2013-02-27 16:26:00,59.1,41.0,29.68,SW,227,1.0,2.0,51,0.00,,,0.00,Wunderground v.1.15,2013-02-27 21:26:00,
2013-02-27 16:32:00,59.3,39.6,29.68,SW,235,1.0,3.0,48,0.00,,,0.00,Wunderground v.1.15,2013-02-27 21:32:00,
2013-02-27 16:38:00,58.9,40.3,29.68,SSE,155,1.0,3.0,50,0.00,,,0.00,Wunderground v.1.15,2013-02-27 21:38:00,
2013-02-27 16:44:00,58.4,39.3,29.68,WSW,237,2.0,2.0,49,0.00,,,0.00,Wunderground v.1.15,2013-02-27 21:44:00,
2013-02-27 16:50:00,58.1,41.0,29.68,West,259,1.0,1.0,53,0.00,,,0.00,Wunderground v.1.15,2013-02-27 21:50:00,
2013-02-27 16:56:00,57.8,39.3,29.68,WSW,238,1.0,2.0,50,0.00,,,0.00,Wunderground v.1.15,2013-02-27 21:56:00,
2013-02-27 17:02:00,57.8,40.8,29.68,WSW,237,1.0,1.0,53,0.00,,,0.00,Wunderground v.1.15,2013-02-27 22:02:00,
2013-02-27 17:08:00,57.7,39.7,29.68,West,269,1.0,2.0,51,0.00,,,0.00,Wunderground v.1.15,2013-02-27 22:08:00,
2013-02-27 17:14:00,57.4,40.4,29.69,West,269,1.0,1.0,53,0.00,,,0.00,Wunderground v.1.15,2013-02-27 22:14:00,
2013-02-27 17:20:00,57.1,41.1,29.68,West,274,1.0,1.0,55,0.00,,,0.00,Wunderground v.1.15,2013-02-27 22:20:00,
2013-02-27 17:26:00,56.9,40.9,29.68,West,274,1.0,2.0,55,0.00,,,0.00,Wunderground v.1.15,2013-02-27 22:26:00,
2013-02-27 17:32:00,56.7,41.6,29.68,SW,227,1.0,1.0,57,0.00,,,0.00,Wunderground v.1.15,2013-02-27 22:32:00,
2013-02-27 17:38:00,56.3,41.3,29.68,SW,227,0.0,1.0,57,0.00,,,0.00,Wunderground v.1.15,2013-02-27 22:38:00,
2013-02-27 17:44:00,55.9,41.3,29.68,SW,227,0.0,0.0,58,0.00,,,0.00,Wunderground v.1.15,2013-02-27 22:44:00,
2013-02-27 17:50:00,55.3,41.6,29.69,SW,227,0.0,0.0,60,0.00,,,0.00,Wunderground v.1.15,2013-02-27 22:50:00,
2013-02-27 17:56:00,54.7,41.5,29.69,WSW,244,0.0,0.0,61,0.00,,,0.00,Wunderground v.1.15,2013-02-27 22:56:00,
2013-02-27 18:02:00,54.3,41.6,29.69,WSW,244,0.0,0.0,62,0.00,,,0.00,Wunderground v.1.15,2013-02-27 23:02:00,
2013-02-27 18:08:00,53.9,41.6,29.69,WSW,244,0.0,0.0,63,0.00,,,0.00,Wunderground v.1.15,2013-02-27 23:08:00,
2013-02-27 18:14:00,53.4,41.5,29.69,WSW,244,0.0,0.0,64,0.00,,,0.00,Wunderground v.1.15,2013-02-27 23:14:00,
2013-02-27 18:20:00,52.9,41.4,29.70,WSW,244,0.0,0.0,65,0.00,,,0.00,Wunderground v.1.15,2013-02-27 23:20:00,
2013-02-27 18:26:00,52.3,41.3,29.70,WSW,244,0.0,0.0,66,0.00,,,0.00,Wunderground v.1.15,2013-02-27 23:26:00,
2013-02-27 18:32:00,51.8,41.6,29.70,WSW,244,0.0,0.0,68,0.00,,,0.00,Wunderground v.1.15,2013-02-27 23:32:00,
2013-02-27 18:38:00,51.2,42.1,29.70,WSW,244,0.0,0.0,71,0.00,,,0.00,Wunderground v.1.15,2013-02-27 23:38:00,
2013-02-27 18:44:00,50.8,41.7,29.70,WSW,244,0.0,0.0,71,0.00,,,0.00,Wunderground v.1.15,2013-02-27 23:44:00,
2013-02-27 18:50:00,50.4,41.7,29.71,South,173,0.0,0.0,72,0.00,,,0.00,Wunderground v.1.15,2013-02-27 23:50:00,
2013-02-27 18:56:00,50.1,41.4,29.70,South,173,0.0,0.0,72,0.00,,,0.00,Wunderground v.1.15,2013-02-27 23:56:00,
2013-02-27 19:02:00,49.7,41.4,29.70,South,173,0.0,0.0,73,0.00,,,0.00,Wunderground v.1.15,2013-02-28 00:02:00,
2013-02-27 19:08:00,49.5,41.2,29.70,South,173,0.0,0.0,73,0.00,,,0.00,Wunderground v.1.15,2013-02-28 00:08:00,
2013-02-27 19:14:00,49.1,41.2,29.70,South,173,0.0,0.0,74,0.00,,,0.00,Wunderground v.1.15,2013-02-28 00:14:00,
2013-02-27 19:20:00,48.7,40.8,29.70,South,173,0.0,0.0,74,0.00,,,0.00,Wunderground v.1.15,2013-02-28 00:20:00,
2013-02-27 19:26:00,48.4,40.5,29.71,South,173,0.0,0.0,74,0.00,,,0.00,Wunderground v.1.15,2013-02-28 00:26:00,
2013-02-27 19:32:00,48.1,40.5,29.70,South,173,0.0,0.0,75,0.00,,,0.00,Wunderground v.1.15,2013-02-28 00:32:00,
2013-02-27 19:38:00,47.8,40.6,29.70,South,173,0.0,0.0,76,0.00,,,0.00,Wunderground v.1.15,2013-02-28 00:38:00,
2013-02-27 19:44:00,47.5,40.3,29.70,South,173,0.0,0.0,76,0.00,,,0.00,Wunderground v.1.15,2013-02-28 00:44:00,
2013-02-27 19:50:00,47.2,40.7,29.70,South,173,0.0,0.0,78,0.00,,,0.00,Wunderground v.1.15,2013-02-28 00:50:00,
2013-02-27 19:56:00,46.9,40.4,29.70,South,173,0.0,0.0,78,0.00,,,0.00,Wunderground v.1.15,2013-02-28 00:56:00,
2013-02-27 20:02:00,46.9,40.7,29.70,South,173,0.0,0.0,79,0.00,,,0.00,Wunderground v.1.15,2013-02-28 01:02:00,
2013-02-27 20:08:00,46.8,40.3,29.70,South,173,0.0,0.0,78,0.00,,,0.00,Wunderground v.1.15,2013-02-28 01:08:00,
2013-02-27 20:14:00,46.5,40.7,29.70,South,173,0.0,0.0,80,0.00,,,0.00,Wunderground v.1.15,2013-02-28 01:14:00,
2013-02-27 20:20:00,46.2,40.4,29.70,South,173,0.0,0.0,80,0.00,,,0.00,Wunderground v.1.15,2013-02-28 01:20:00,
2013-02-27 20:26:00,45.9,40.4,29.70,South,173,0.0,0.0,81,0.00,,,0.00,Wunderground v.1.15,2013-02-28 01:26:00,
2013-02-27 20:32:00,45.6,40.4,29.69,South,173,0.0,0.0,82,0.00,,,0.00,Wunderground v.1.15,2013-02-28 01:32:00,
2013-02-27 20:38:00,45.3,40.1,29.69,South,173,0.0,0.0,82,0.00,,,0.00,Wunderground v.1.15,2013-02-28 01:38:00,
2013-02-27 20:44:00,45.0,39.8,29.70,South,173,0.0,0.0,82,0.00,,,0.00,Wunderground v.1.15,2013-02-28 01:44:00,
2013-02-27 20:50:00,44.7,39.9,29.69,South,173,0.0,0.0,83,0.00,,,0.00,Wunderground v.1.15,2013-02-28 01:50:00,
2013-02-27 20:56:00,44.5,39.7,29.69,South,173,0.0,0.0,83,0.00,,,0.00,Wunderground v.1.15,2013-02-28 01:56:00,
2013-02-27 21:02:00,44.2,39.7,29.69,South,173,0.0,0.0,84,0.00,,,0.00,Wunderground v.1.15,2013-02-28 02:02:00,
2013-02-27 21:08:00,44.0,39.8,29.69,South,173,0.0,0.0,85,0.00,,,0.00,Wunderground v.1.15,2013-02-28 02:08:00,
2013-02-27 21:14:00,43.7,39.5,29.69,South,173,0.0,0.0,85,0.00,,,0.00,Wunderground v.1.15,2013-02-28 02:14:00,
2013-02-27 21:20:00,43.5,39.6,29.70,South,173,0.0,0.0,86,0.00,,,0.00,Wunderground v.1.15,2013-02-28 02:20:00,
2013-02-27 21:26:00,43.3,39.4,29.70,South,173,0.0,0.0,86,0.00,,,0.00,Wunderground v.1.15,2013-02-28 02:26:00,
2013-02-27 21:32:00,43.1,39.5,29.70,South,173,0.0,0.0,87,0.00,,,0.00,Wunderground v.1.15,2013-02-28 02:32:00,
2013-02-27 21:38:00,42.9,39.3,29.70,South,173,0.0,0.0,87,0.00,,,0.00,Wunderground v.1.15,2013-02-28 02:38:00,
2013-02-27 21:44:00,42.9,39.6,29.69,South,173,0.0,0.0,88,0.00,,,0.00,Wunderground v.1.15,2013-02-28 02:44:00,
2013-02-27 21:50:00,42.8,39.5,29.70,South,173,0.0,0.0,88,0.00,,,0.00,Wunderground v.1.15,2013-02-28 02:50:00,
2013-02-27 21:56:00,42.7,39.4,29.70,South,173,0.0,0.0,88,0.00,,,0.00,Wunderground v.1.15,2013-02-28 02:56:00,
2013-02-27 22:02:00,42.6,39.3,29.70,South,173,0.0,0.0,88,0.00,,,0.00,Wunderground v.1.15,2013-02-28 03:02:00,
2013-02-27 22:08:00,42.4,39.4,29.70,South,173,0.0,0.0,89,0.00,,,0.00,Wunderground v.1.15,2013-02-28 03:08:00,
2013-02-27 22:14:00,42.2,38.9,29.69,South,173,0.0,0.0,88,0.00,,,0.00,Wunderground v.1.15,2013-02-28 03:14:00,
2013-02-27 22:20:00,42.0,39.0,29.70,South,173,0.0,0.0,89,0.00,,,0.00,Wunderground v.1.15,2013-02-28 03:20:00,
2013-02-27 22:26:00,41.8,39.1,29.70,South,173,0.0,0.0,90,0.00,,,0.00,Wunderground v.1.15,2013-02-28 03:26:00,
2013-02-27 22:32:00,41.6,38.9,29.70,South,173,0.0,0.0,90,0.00,,,0.00,Wunderground v.1.15,2013-02-28 03:32:00,
2013-02-27 22:38:00,41.4,38.7,29.70,South,173,0.0,0.0,90,0.00,,,0.00,Wunderground v.1.15,2013-02-28 03:38:00,
2013-02-27 22:44:00,41.2,38.2,29.69,South,173,0.0,0.0,89,0.00,,,0.00,Wunderground v.1.15,2013-02-28 03:44:00,
2013-02-27 23:02:00,40.5,37.8,29.69,South,173,0.0,0.0,90,0.00,,,0.00,Wunderground v.1.15,2013-02-28 04:02:00,
2013-02-27 23:08:00,40.3,37.9,29.68,South,173,0.0,0.0,91,0.00,,,0.00,Wunderground v.1.15,2013-02-28 04:08:00,
2013-02-27 23:14:00,40.1,37.7,29.68,South,173,0.0,0.0,91,0.00,,,0.00,Wunderground v.1.15,2013-02-28 04:14:00,
2013-02-27 23:20:00,40.0,37.6,29.68,South,173,0.0,0.0,91,0.00,,,0.00,Wunderground v.1.15,2013-02-28 04:20:00,
2013-02-27 23:26:00,39.8,37.4,29.67,South,173,0.0,0.0,91,0.00,,,0.00,Wunderground v.1.15,2013-02-28 04:26:00,
2013-02-27 23:32:00,39.6,37.2,29.67,South,173,0.0,0.0,91,0.00,,,0.00,Wunderground v.1.15,2013-02-28 04:32:00,
2013-02-27 23:38:00,39.5,37.4,29.67,South,173,0.0,0.0,92,0.00,,,0.00,Wunderground v.1.15,2013-02-28 04:38:00,
2013-02-27 23:44:00,39.2,36.8,29.67,South,173,0.0,0.0,91,0.00,,,0.00,Wunderground v.1.15,2013-02-28 04:44:00,
2013-02-27 23:50:00,39.2,37.3,29.67,South,173,0.0,0.0,93,0.00,,,0.00,Wunderground v.1.15,2013-02-28 04:50:00,
2013-02-27 23:56:00,39.4,37.8,29.67,South,173,0.0,0.0,94,0.00,,,0.00,Wunderground v.1.15,2013-02-28 04:56:00,